Vertical_Velocity
-0 0 -1 -1 0 0 1 1 -0 -1 0 -0 -2 -0 1 -2 -2 -2 -0 -1 -1 -2 2 2 -0 -0 -1 -5 -5 -3 -0 -2 -2 0 1 0 0 -2 -2 -0 -1 -1 0 -1
-0 -2 1 -1 -0 2 -0 -1 -2 -1 -2 -1 2 1 2 1 -2 -4 -1 -3 -1 -0 -2 1 0 -4 -11 -1 -2 -5 -2 -3 0 -1 1 1 0 -1 0 -2 -1 -1 -0 -0
-2 1 1 -1 -1 0 -1 0 2 -0 1 2 1 -0 3 1 -1 -2 -2 -2 -2 -0 -0 -2 0 -2 6 10 -2 13 1 -5 -2 -3 -0 0 1 1 -1 -1 -0 -1 1 0
-3 0 -2 1 -3 -1 0 2 1 4 2 2 0 4 1 1 -0 -0 -1 -2 -3 -1 0 4 -1 -3 -1 7 -33 -11 5 -2 -4 -2 -1 1 1 1 0 -1 -1 -0 1 1
4 3 -1 -0 1 -0 -1 -0 1 0 3 1 1 -1 1 1 1 0 -0 -1 -1 -1 3 -2 -2 -5 -1 4 4 3 0 -9 -3 -2 -1 -0 1 1 0 0 -1 1 -0 0
-6 -3 -5 -1 1 2 3 -1 0 -1 3 2 1 3 1 1 4 1 2 -1 3 1 2 5 1 -2 -1 -2 -1 -1 0 -5 -1 -1 -1 0 1 -1 -2 -1 -1 -0 -1 -0
1 -2 1 1 -0 -0 -1 -0 -0 -1 -0 0 -1 2 2 0 -3 -3 2 2 -2 -3 -1 -2 -2 -2 2 0 1 1 -25 5 -1 -0 -1 1 0 -1 -1 -2 1 1 -0 -1
3 -7 1 6 2 -0 -2 -2 1 0 1 -0 -1 3 2 4 2 1 -1 -3 -4 -2 -0 -2 1 -2 -2 2 1 1 7 -3 -0 0 -2 0 -1 -1 -0 -1 -0 0 -0 -0
3 -2 -1 3 0 -0 2 -5 1 -0 0 0 2 -2 2 1 4 2 -1 1 5 1 -1 -3 0 1 -3 -1 3 -1 -4 -2 1 1 0 -0 -1 -1 -1 -0 -0 1 -0 -1
-3 -1 -0 -2 1 -3 -1 0 -3 -0 -1 -1 2 0 1 0 -1 -1 -1 2 -1 1 1 0 -3 1 1 -0 1 1 1 -0 1 -0 0 1 -1 -2 -0 -2 -1 2 3 1
5 2 -3 2 0 4 1 1 -2 -1 -2 2 3 1 -1 -1 -1 -4 1 1 -0 2 -0 -1 1 -3 1 -2 0 3 1 -1 -2 -1 -2 -2 -2 -0 1 1 -0 1 1 -1
7 -0 -3 3 2 0 -1 -2 -1 -2 2 -0 -1 2 -4 -0 -1 -4 1 1 1 2 0 3 2 1 -2 0 1 0 0 0 -1 -3 -5 -4 -3 -1 -1 -0 1 2 0 -1
8 2 -2 2 0 4 -1 7 1 1 0 1 1 6 -7 -5 -4 -3 -1 2 -0 3 0 2 3 -1 1 5 -0 0 -1 -3 -3 -3 -1 -2 -2 -4 -1 -1 1 3 3 -6
-3 1 2 9 5 -3 -1 5 -1 1 -4 -1 3 4 -3 -3 -4 -1 0 4 4 1 -0 3 -0 -3 7 4 2 -3 0 0 -0 -1 -2 1 2 -0 -2 2 2 3 -1 3
-1 2 3 0 1 0 -1 0 -1 0 -1 -6 7 3 -1 -1 -2 -2 -0 3 3 1 -1 1 1 4 2 3 1 -0 0 -3 -2 -4 -2 0 3 -1 4 1 -3 2 -5 -9
-3 5 1 -1 -1 0 -0 -0 3 -3 -2 -3 1 -1 1 -1 -1 -2 1 1 5 4 2 1 0 -17 -0 3 2 1 1 -1 -2 -2 -2 -1 -1 -1 5 -2 -0 -8 -24 12
-2 3 1 2 -1 3 -3 2 -2 0 -1 -1 -2 -1 2 2 -4 -0 3 -1 1 1 1 -4 16 14 -0 3 -1 -3 2 2 -2 -2 -1 0 -0 -1 4 -1 -2 -5 9 -13
-1 2 6 1 1 -1 2 -1 -1 -2 -1 -1 -7 1 -0 -2 -4 1 2 0 0 -1 -1 -0 5 9 2 2 -3 1 -1 1 -2 0 -2 -1 1 -3 4 -3 3 -17 12 12
3 2 3 -6 4 1 -1 -5 1 -1 4 -1 -1 -1 -3 1 3 2 -2 2 2 2 -1 3 1 -1 2 3 1 -0 -0 -1 1 3 1 1 1 -6 4 3 -1 9 4 -3
1 3 -1 6 -0 -4 2 4 1 3 -7 4 -0 -6 2 5 -3 -0 -1 1 -2 3 -1 -3 -1 1 -3 1 -1 -1 -2 -0 -0 -2 -1 1 -0 -2 -1 7 5 -7 1 7
-2 3 1 4 4 -8 -4 7 3 -3 -5 3 5 1 2 -1 -2 -4 -0 -1 3 3 5 8 2 -2 -4 0 1 -1 -1 -1 -0 -2 1 2 -0 -0 -2 -1 6 1 2 3
-1 5 -1 -1 -1 -16 0 -2 -1 5 1 -2 -1 7 1 1 2 0 -2 0 -0 -2 -4 2 2 2 -0 -4 -3 2 -1 -2 -2 -0 1 1 1 2 -1 -1 1 4 -2 1
-1 -5 -0 3 -3 -6 8 0 6 -4 2 1 1 2 3 4 6 1 3 3 1 19 0 7 16 0 -2 2 -0 0 3 -3 -1 0 1 2 -1 1 1 1 -2 -1 2 0
-1 1 -4 8 -4 -6 2 -2 3 1 -2 5 2 5 -3 -3 -5 -1 -1 10 -0 -4 1 -0 -3 -9 -3 2 -2 -0 1 0 -1 -0 -3 1 1 -1 -1 1 3 0 -6 2
3 5 1 -2 1 4 4 -1 3 1 -1 -5 -2 -2 -2 -2 -3 1 1 -1 -4 -4 1 4 -2 2 -2 -3 -2 -3 -1 2 -0 -3 -5 -3 4 -2 -0 -0 1 2 -4 -2
2 3 -0 -0 4 -0 9 2 -1 -2 2 2 1 5 5 2 1 6 1 1 2 -3 -2 -1 -3 -4 -6 -3 3 -1 -2 -1 2 3 -3 -5 0 0 -0 2 2 2 2 -2
Height
5947 5950 5951 5951 5955 5956 5957 5958 5957 5958 5959 5959 5959 5960 5960 5960 5960 5960 5958 5957 5956 5956 5956 5955 5953 5951 5949 5950 5946 5945 5944 5942 5941 5940 5940 5940 5939 5939 5940 5939 5940 5941 5942 5942
5948 5948 5952 5953 5955 5957 5957 5958 5957 5958 5959 5960 5960 5961 5961 5961 5961 5959 5959 5958 5957 5956 5956 5955 5954 5951 5950 5947 5945 5944 5944 5942 5939 5938 5939 5938 5938 5938 5939 5939 5939 5940 5941 5941
5947 5949 5951 5954 5954 5956 5957 5958 5958 5959 5959 5960 5960 5961 5962 5962 5961 5960 5959 5959 5958 5958 5956 5954 5953 5950 5943 5929 5938 5937 5942 5942 5940 5937 5936 5938 5938 5938 5938 5938 5938 5939 5939 5940
5945 5948 5950 5952 5953 5955 5957 5958 5959 5960 5960 5960 5961 5963 5962 5961 5961 5961 5960 5959 5958 5958 5956 5955 5952 5949 5949 5944 5935 5944 5942 5943 5939 5935 5935 5937 5937 5936 5936 5936 5937 5938 5939 5939
5944 5946 5948 5950 5953 5955 5957 5957 5957 5958 5960 5960 5959 5961 5962 5962 5961 5962 5961 5960 5959 5959 5958 5956 5952 5947 5948 5948 5945 5946 5945 5944 5939 5935 5934 5935 5935 5935 5935 5936 5935 5936 5937 5937
5939 5942 5946 5948 5951 5952 5953 5955 5956 5957 5959 5958 5957 5958 5959 5961 5962 5961 5960 5959 5960 5957 5955 5953 5951 5948 5947 5948 5948 5948 5945 5942 5937 5934 5933 5934 5935 5935 5934 5934 5934 5934 5934 5935
5936 5940 5943 5945 5947 5949 5951 5952 5954 5956 5956 5957 5955 5957 5955 5956 5958 5958 5959 5958 5957 5955 5952 5952 5950 5949 5946 5947 5946 5943 5939 5936 5936 5934 5934 5934 5934 5935 5935 5933 5933 5933 5932 5932
5932 5936 5939 5943 5945 5945 5947 5950 5951 5952 5953 5954 5953 5954 5954 5954 5954 5953 5953 5954 5954 5951 5949 5948 5947 5946 5945 5945 5945 5942 5939 5938 5938 5937 5936 5934 5934 5934 5933 5932 5931 5931 5929 5929
5927 5930 5934 5937 5939 5941 5943 5946 5949 5949 5950 5950 5951 5951 5951 5950 5951 5950 5950 5950 5950 5949 5947 5946 5945 5944 5943 5943 5942 5942 5939 5939 5939 5938 5936 5934 5933 5932 5931 5931 5930 5928 5927 5925
5921 5924 5927 5931 5933 5935 5938 5941 5944 5945 5946 5946 5948 5946 5947 5947 5946 5946 5945 5947 5946 5947 5945 5943 5943 5942 5942 5941 5939 5939 5938 5937 5937 5936 5934 5932 5931 5930 5929 5928 5927 5926 5924 5923
5914 5918 5922 5925 5928 5930 5933 5935 5937 5941 5942 5943 5944 5944 5944 5944 5943 5942 5942 5943 5943 5943 5942 5942 5942 5939 5939 5939 5937 5937 5936 5935 5934 5934 5932 5930 5929 5928 5927 5926 5924 5923 5921 5920
5909 5912 5915 5919 5922 5923 5925 5928 5931 5933 5936 5937 5939 5941 5940 5938 5939 5939 5939 5940 5940 5940 5939 5940 5939 5937 5937 5937 5936 5934 5933 5933 5932 5932 5930 5929 5928 5926 5924 5922 5920 5919 5918 5917
5902 5906 5909 5912 5915 5917 5919 5922 5925 5927 5929 5931 5934 5938 5936 5934 5934 5934 5937 5938 5937 5936 5936 5936 5936 5935 5935 5935 5935 5933 5932 5931 5930 5929 5927 5926 5925 5923 5921 5918 5915 5914 5914 5913
5895 5899 5903 5907 5908 5909 5913 5916 5919 5921 5923 5926 5929 5933 5932 5930 5930 5932 5933 5934 5934 5933 5932 5933 5933 5933 5934 5934 5933 5932 5931 5930 5928 5927 5925 5923 5922 5922 5919 5916 5913 5913 5911 5908
5887 5892 5895 5897 5899 5903 5906 5908 5910 5914 5918 5920 5926 5928 5928 5928 5928 5929 5929 5930 5931 5930 5929 5930 5930 5932 5933 5932 5932 5931 5930 5928 5925 5923 5921 5919 5918 5916 5915 5913 5910 5910 5904 5899
5881 5886 5889 5891 5893 5896 5898 5901 5903 5907 5911 5914 5919 5921 5924 5925 5925 5926 5926 5926 5927 5927 5926 5927 5928 5928 5930 5930 5930 5929 5928 5926 5924 5921 5918 5916 5913 5911 5909 5908 5908 5905 5892 5885
5875 5880 5883 5887 5889 5890 5892 5894 5898 5902 5907 5910 5914 5917 5919 5920 5921 5922 5922 5922 5922 5923 5922 5921 5922 5924 5922 5926 5926 5926 5925 5923 5921 5918 5915 5912 5909 5906 5903 5901 5901 5900 5895 5884
5871 5875 5879 5882 5884 5884 5887 5890 5894 5898 5902 5905 5908 5910 5911 5914 5916 5917 5918 5919 5918 5917 5917 5918 5920 5921 5922 5922 5922 5921 5920 5918 5916 5913 5911 5909 5906 5902 5899 5896 5895 5894 5889 5885
5866 5869 5872 5875 5879 5882 5884 5887 5891 5894 5898 5900 5903 5905 5907 5909 5911 5912 5913 5915 5916 5916 5915 5914 5914 5917 5918 5918 5917 5916 5914 5912 5911 5909 5906 5904 5901 5898 5895 5892 5892 5889 5885 5884
5860 5863 5867 5871 5874 5878 5882 5884 5887 5889 5891 5895 5898 5900 5901 5904 5905 5908 5909 5911 5911 5912 5912 5911 5910 5910 5910 5912 5912 5910 5909 5907 5904 5902 5901 5899 5896 5893 5890 5886 5885 5885 5882 5880
5853 5857 5861 5865 5868 5872 5876 5880 5882 5883 5889 5888 5891 5894 5896 5898 5901 5903 5904 5905 5906 5906 5907 5907 5907 5905 5904 5904 5905 5904 5902 5900 5897 5897 5895 5893 5890 5887 5885 5881 5879 5878 5877 5876
5846 5850 5854 5858 5861 5866 5870 5872 5876 5879 5879 5881 5883 5886 5888 5890 5892 5894 5896 5897 5898 5898 5898 5899 5900 5900 5898 5897 5896 5896 5895 5893 5891 5890 5888 5886 5884 5881 5879 5876 5875 5872 5870 5869
5838 5842 5847 5852 5855 5860 5863 5867 5869 5870 5872 5874 5876 5878 5880 5882 5885 5886 5886 5888 5889 5888 5888 5887 5888 5891 5890 5889 5887 5887 5886 5884 5883 5882 5880 5878 5876 5874 5873 5871 5869 5867 5865 5864
5830 5834 5839 5844 5847 5851 5855 5860 5862 5863 5865 5866 5867 5870 5872 5874 5876 5877 5879 5879 5881 5880 5879 5880 5882 5880 5878 5878 5876 5875 5876 5876 5873 5871 5870 5870 5869 5867 5865 5864 5863 5860 5858 5856
5822 5827 5830 5835 5839 5845 5848 5852 5854 5856 5857 5859 5860 5863 5865 5867 5869 5871 5870 5871 5872 5871 5871 5872 5872 5870 5868 5867 5866 5865 5864 5864 5864 5861 5860 5860 5860 5858 5857 5856 5854 5852 5849 5847
5813 5818 5822 5827 5832 5836 5841 5844 5847 5849 5850 5851 5853 5855 5857 5858 5859 5860 5862 5862 5862 5862 5862 5860 5860 5859 5857 5856 5855 5854 5852 5852 5853 5852 5850 5849 5849 5848 5846 5844 5843 5841 5840 5837